Flag for Canada Weather past 2 weeks in Kingston, Ontario, Canada

Now
59 °F

Fog.


Feels Like: 59 °F
Forecast: 53 / 69 °F
Wind: No wind

Location: Kingston

Current Time: Sep 30, 2014 at 2:13:17 AM

Latest Report: Sep 29, 2014 at 11:00 PM


Visibility: 10 mi

Pressure: 29.89 "Hg

Humidity: 100%

Dew point: 59 °F

Location of KingstonLocation

Historic Weather in Kingston — Graph

°F

Kingston temperature yesterday

Maximum temperature yesterday: 70 °F (at 3:00 PM)
Minimum temperature yesterday: 54 °F (at 8:00 AM)
Average temperature yesterday: 63 °F

Past Weeks' High & Low Weather Summary

 TemperatureHumidityPressure
High73 °F (Sep 21, 4:00 PM)100% (Sep 24, 9:00 AM)30.56 "Hg (Sep 24, 9:00 AM)
Low34 °F (Sep 19, 6:00 AM)45% (Sep 16, 4:00 PM)29.49 "Hg (Sep 21, 5:00 PM)
Average59 °F76%30.12 "Hg
* Reported Sep 14 11:00 PM — Sep 29 11:00 PM, Kingston, Weather by CustomWeather, © 2014

Note: Actual official high and low records may vary slightly from our data, if they occured in-between our weather recording intervals... More about our weather records

Advertising

Kingston weather history for previous 24 hours

 ConditionsComfort  
Time TempWeatherWind HumidityBarometerVisibility
11:00 PM
Sep 29
59 °FFog.No wind100%29.89 "Hg10 mi
10:00 PM59 °FFog.No wind100%29.89 "Hg15 mi
9:00 PM61 °FClear.3 mph94%29.90 "Hg15 mi
8:00 PM63 °FPassing clouds.3 mph94%29.90 "Hg15 mi
7:00 PM64 °FPassing clouds.7 mph88%29.90 "Hg15 mi
6:00 PM68 °FPassing clouds.7 mph78%29.90 "Hg15 mi
5:00 PM68 °FPassing clouds.10 mph78%29.90 "Hg15 mi
4:00 PM68 °FPassing clouds.12 mph83%29.91 "Hg15 mi
3:00 PM70 °FPassing clouds.10 mph83%29.92 "Hg15 mi
2:00 PM68 °FPassing clouds.10 mph83%29.94 "Hg15 mi
1:00 PM68 °FScattered clouds.9 mph78%29.96 "Hg15 mi
12:00 PM64 °FBroken clouds.7 mph88%29.97 "Hg15 mi
11:00 AM66 °FPartly sunny.7 mph78%29.98 "Hg15 mi
10:00 AM64 °FPartly sunny.2 mph78%29.98 "Hg15 mi
9:00 AM61 °FScattered clouds.2 mph88%29.99 "Hg12 mi
8:00 AM54 °FPartly cloudy.2 mph100%30.00 "Hg12 mi
7:00 AM55 °FFog.5 mph94%30.00 "Hg12 mi
6:00 AM55 °FPassing clouds.2 mph100%29.99 "Hg15 mi
Weather by CustomWeather, © 2014

See weather overviewHow to use our weather pages